TimeCDT,TemperatureF,Dew PointF,Humidity,Sea Level PressureIn,VisibilityMPH,Wind Direction,Wind SpeedMPH,Gust SpeedMPH,PrecipitationIn,Events,Conditions,WindDirDegrees,DateUTC
12:56 AM,42.1,39.0,89,30.21,10.0,Calm,Calm,-,N/A,,Clear,0,2013-04-20 05:56:00
1:56 AM,41.0,37.9,89,30.21,10.0,Calm,Calm,-,N/A,,Clear,0,2013-04-20 06:56:00
2:56 AM,39.9,37.9,93,30.20,10.0,Calm,Calm,-,N/A,,Clear,0,2013-04-20 07:56:00
3:56 AM,39.9,37.0,89,30.20,10.0,Calm,Calm,-,N/A,,Clear,0,2013-04-20 08:56:00
4:56 AM,39.0,36.0,89,30.19,10.0,Calm,Calm,-,N/A,,Clear,0,2013-04-20 09:56:00
5:56 AM,39.0,36.0,89,30.20,10.0,Calm,Calm,-,N/A,,Clear,0,2013-04-20 10:56:00
6:56 AM,37.9,36.0,93,30.23,10.0,Calm,Calm,-,N/A,,Clear,0,2013-04-20 11:56:00
7:56 AM,43.0,41.0,93,30.24,10.0,Calm,Calm,-,N/A,,Clear,0,2013-04-20 12:56:00
8:56 AM,55.9,39.0,53,30.25,10.0,Calm,Calm,-,N/A,,Clear,0,2013-04-20 13:56:00
9:56 AM,60.1,33.1,36,30.25,10.0,Variable,5.8,-,N/A,,Clear,0,2013-04-20 14:56:00
10:56 AM,63.0,30.9,30,30.25,10.0,Variable,4.6,-,N/A,,Clear,0,2013-04-20 15:56:00
11:56 AM,64.9,30.9,28,30.24,10.0,Variable,5.8,-,N/A,,Clear,0,2013-04-20 16:56:00
12:56 PM,68.0,32.0,26,30.21,10.0,Variable,5.8,-,N/A,,Clear,0,2013-04-20 17:56:00
1:56 PM,69.1,32.0,25,30.19,10.0,Variable,6.9,-,N/A,,Clear,0,2013-04-20 18:56:00
2:56 PM,71.1,34.0,26,30.17,10.0,Variable,4.6,-,N/A,,Clear,0,2013-04-20 19:56:00
3:56 PM,71.1,33.1,25,30.14,10.0,Variable,6.9,17.3,N/A,,Clear,0,2013-04-20 20:56:00
4:56 PM,70.0,34.0,27,30.12,10.0,SE,8.1,-,N/A,,Clear,130,2013-04-20 21:56:00
5:56 PM,70.0,35.1,28,30.10,10.0,Variable,3.5,-,N/A,,Clear,0,2013-04-20 22:56:00
6:56 PM,66.9,37.9,34,30.10,10.0,Variable,3.5,-,N/A,,Clear,0,2013-04-20 23:56:00
7:56 PM,61.0,39.9,46,30.12,10.0,Calm,Calm,-,N/A,,Clear,0,2013-04-21 00:56:00
8:56 PM,55.0,44.1,67,30.15,10.0,Calm,Calm,-,N/A,,Clear,0,2013-04-21 01:56:00
9:56 PM,51.1,46.9,86,30.17,10.0,Calm,Calm,-,N/A,,Clear,0,2013-04-21 02:56:00
10:56 PM,48.9,44.1,83,30.18,10.0,Calm,Calm,-,N/A,,Clear,0,2013-04-21 03:56:00
11:56 PM,48.0,44.1,86,30.18,10.0,Calm,Calm,-,N/A,,Clear,0,2013-04-21 04:56:00